Flag for Iceland Weather past 2 weeks in Reykjavik, Iceland

37 °F

Scattered clouds.

Feels Like: 31 °F
Forecast: 36 / 45 °F
Wind: 9 mph from East

Location: Reykjavik Airport

Current Time: Oct 10, 2015 at 9:50:06 AM

Latest Report: Oct 10, 2015 at 9:00 AM

Visibility: N/A

Pressure: 30.01 "Hg

Humidity: 87%

Dew point: 34 °F

Location of ReykjavikLocation

Historic Weather in Reykjavik — Graph


Reykjavik temperature yesterday

Maximum temperature yesterday: 45 °F (at 1:00 PM)
Minimum temperature yesterday: 34 °F (at 1:00 AM)
Average temperature yesterday: 41 °F

Past Weeks' High & Low Weather Summary

High55 °F (Sep 26, 2:00 PM)94% (Sep 30, 11:00 PM)30.18 "Hg (Sep 30, 11:00 PM)
Low34 °F (Oct 3, 3:00 AM)62% (Sep 29, 2:02 PM)28.94 "Hg (Oct 6, 2:00 PM)
Average44 °F80%29.61 "Hg
* Reported Sep 25 8:00 AM — Oct 10 8:00 AM, Reykjavik, Weather by CustomWeather, © 2015

Note: Actual official high and low records may vary slightly from our data, if they occured in-between our weather recording intervals... More about our weather records


Reykjavik weather history for previous 24 hours

Time TempWeatherWind HumidityBarometerVisibility
8:00 AM
Sat, Oct 10
37 °FPassing clouds.9 mph87%30.01 "HgN/A
7:00 AM37 °FPartly cloudy.6 mph93%30.01 "HgN/A
6:00 AM37 °FPassing clouds.6 mph93%30.01 "HgN/A
5:00 AM39 °FDrizzle. Fog.6 mph93%30.01 "Hg3 mi
4:00 AM39 °FPartly cloudy.6 mph93%30.01 "Hg5 mi
3:00 AM39 °FDrizzle. Mostly cloudy.9 mph93%29.98 "Hg5 mi
2:00 AM41 °FPassing clouds.6 mph87%29.98 "Hg6 mi
1:00 AM41 °FPartly cloudy.2 mph87%29.98 "HgN/A
12:00 AM41 °FDrizzle. Mostly cloudy.10 mph87%29.95 "HgN/A
11:00 PM
Fri, Oct 9
41 °FDrizzle. Mostly cloudy.12 mph81%29.95 "HgN/A
10:00 PM41 °FScattered showers. Partly cloudy.12 mph87%29.92 "HgN/A
9:00 PM41 °FPassing clouds.14 mph87%29.92 "HgN/A
8:00 PM41 °FPartly cloudy.15 mph87%29.89 "HgN/A
7:00 PM43 °FSprinkles. Partly cloudy.17 mph81%29.86 "HgN/A
6:00 PM43 °FScattered showers. Broken clouds.18 mph76%29.86 "HgN/A
5:00 PM45 °FBroken clouds.18 mph71%29.83 "HgN/A
4:00 PM43 °FSprinkles. Partly sunny.17 mph87%29.80 "HgN/A
3:00 PM43 °FSprinkles. Partly sunny.17 mph81%29.77 "HgN/A
2:00 PM45 °FScattered showers. Scattered clouds.17 mph76%29.77 "HgN/A
1:00 PM45 °FPassing clouds.16 mph76%29.74 "HgN/A
12:00 PM43 °FScattered showers. Scattered clouds.13 mph81%29.74 "HgN/A
11:00 AM43 °FScattered showers. Partly sunny.10 mph81%29.71 "HgN/A
10:00 AM43 °FPartly sunny.10 mph76%29.71 "HgN/A
9:00 AM39 °FRain showers. Partly sunny.9 mph87%29.68 "HgN/A
Weather by CustomWeather, © 2015

See weather overviewHow to use our weather pages